Wind_Speed
39 39 40 40 37 36 35 35 35 36 39 42 44 45 45 46 47 46 45 42 42 42 44 45 46 47 47 46 47 48 50 52 54 56 58 60 61 62 62 62 61 60 60 60
41 41 42 44 44 43 41 40 42 45 47 48 49 49 50 50 50 48 45 41 41 44 46 48 49 51 51 51 51 51 52 53 55 56 57 58 59 60 59 59 59 59 58 58
40 39 40 44 47 48 47 46 48 49 50 49 49 48 47 46 47 48 48 49 49 49 50 51 51 52 52 52 52 52 52 52 53 53 53 54 56 56 57 56 56 55 54 54
39 38 37 40 44 46 47 48 50 52 53 53 53 53 53 54 55 55 56 55 54 53 52 52 52 51 51 51 50 50 50 49 49 50 50 51 52 52 52 52 52 51 50 49
37 36 35 34 37 40 41 43 45 47 50 52 53 53 53 53 53 54 54 54 53 52 52 51 50 50 49 49 48 47 46 45 45 46 46 47 48 49 49 50 49 47 47 46
36 36 35 35 34 35 37 39 40 42 44 46 47 47 48 49 50 50 50 50 50 50 50 49 48 47 46 45 43 42 41 41 41 42 44 45 46 46 45 45 44 44 45 45
30 31 31 31 30 30 33 35 36 38 40 42 44 44 45 45 46 46 46 47 47 47 46 46 45 44 42 40 38 37 37 38 39 40 42 42 42 43 43 43 43 43 43 42
23 23 24 24 24 25 27 29 31 34 36 39 41 42 44 44 45 45 44 44 43 43 43 42 41 40 38 36 35 36 37 38 39 39 39 39 39 39 40 41 41 40 38 36
20 22 23 23 24 24 25 26 28 30 33 34 36 38 40 41 41 41 41 40 40 39 39 37 36 34 33 33 34 34 35 36 36 36 37 37 38 38 38 37 36 34 31 29
19 20 22 22 23 24 25 26 28 30 32 33 34 35 36 37 38 38 37 36 36 35 34 32 31 31 31 32 33 33 32 33 34 35 36 36 36 35 34 32 30 28 26 24
18 19 21 23 24 25 26 27 28 30 31 32 33 34 34 34 33 32 30 29 28 28 27 27 27 28 29 29 29 30 31 32 33 34 34 33 31 30 28 27 25 24 23 22
19 21 23 24 25 26 27 27 27 28 28 28 28 28 28 27 25 23 21 21 20 21 22 23 23 24 25 26 28 30 31 31 31 30 29 27 26 25 25 23 22 22 21 20
19 20 21 22 22 23 23 23 22 22 21 20 20 19 17 15 13 12 13 14 15 16 17 18 20 22 25 27 29 29 29 28 27 25 24 23 23 22 21 20 19 18 17 16
16 16 16 16 17 17 16 16 16 15 14 12 10 8 7 7 7 8 10 11 12 13 15 18 21 23 25 26 26 26 25 24 23 22 21 20 20 19 18 17 16 14 13 11
13 13 13 12 11 11 10 9 9 8 7 5 5 4 5 5 5 6 7 8 11 14 17 20 22 24 24 23 22 21 21 20 19 19 18 18 17 16 15 14 12 10 8 6
10 9 9 8 7 6 4 3 2 1 1 1 1 1 1 2 4 5 7 10 13 16 18 20 22 22 22 21 20 20 19 18 17 17 16 15 14 13 12 10 8 6 6 5
6 5 5 3 2 2 2 3 3 4 4 4 3 3 3 5 6 8 10 13 16 18 20 21 22 21 21 20 20 19 17 16 16 15 15 14 13 12 10 9 8 7 8 9
2 1 0 1 2 4 5 6 6 6 7 7 7 8 8 9 10 11 14 16 19 21 21 22 22 21 21 21 20 18 17 16 16 15 14 14 13 11 10 10 10 11 11 12
3 2 2 4 5 5 6 7 7 8 9 10 10 10 10 11 12 14 17 19 20 22 22 22 22 22 23 22 21 20 19 18 16 16 15 14 14 13 13 13 13 13 14 15
5 4 3 4 5 5 6 7 8 10 10 11 11 11 12 13 14 16 18 20 21 22 23 23 23 24 24 24 24 23 22 20 19 17 16 16 15 15 15 15 14 15 15 15
7 6 5 5 5 6 7 8 9 10 11 11 11 11 12 13 15 17 19 20 22 22 23 24 25 26 27 27 27 26 25 23 21 20 18 17 16 16 15 15 15 15 15 14
9 8 7 6 6 6 7 8 9 10 10 10 10 11 12 14 15 17 19 21 22 23 24 26 27 28 28 29 29 29 28 27 26 24 22 20 18 17 15 15 14 14 13 13
11 10 8 7 7 7 7 8 9 9 10 10 10 11 12 13 15 17 19 21 22 23 24 26 28 29 29 30 30 31 31 31 30 29 27 25 22 19 16 14 13 12 12 11
12 11 9 8 7 7 7 8 8 9 9 9 9 10 11 12 14 16 18 20 22 23 25 26 28 29 30 30 31 31 31 32 32 32 31 29 27 24 20 16 14 12 11 10
13 12 11 9 8 7 7 7 8 9 9 9 9 9 10 11 12 14 16 18 20 22 24 25 26 28 29 30 31 31 32 32 33 33 32 32 31 28 25 21 18 15 13 11
14 13 12 11 9 8 7 8 8 9 10 9 9 9 9 9 11 12 14 16 19 20 21 23 25 26 28 29 30 31 32 32 33 33 33 34 33 32 30 26 23 20 17 15
13 13 12 11 10 9 8 8 9 10 11 10 9 9 9 9 9 10 12 14 16 17 19 20 23 24 26 28 29 31 33 34 34 35 35 35 35 35 34 32 29 26 23 21
Wind_Direction
232 229 229 234 236 238 240 243 246 251 258 265 269 271 271 272 272 273 273 272 275 279 284 286 288 290 291 291 289 287 286 284 284 283 284 285 287 289 291 293 294 296 297 298
240 239 236 239 244 248 252 255 257 260 264 267 268 268 269 270 269 270 271 276 281 286 288 289 289 290 290 290 290 288 287 286 286 286 287 288 289 290 292 294 296 297 298 300
249 250 248 248 248 250 253 255 258 260 263 265 265 266 269 271 274 277 280 285 289 290 289 289 289 289 290 290 289 289 288 288 288 288 288 288 289 291 293 296 297 299 300 301
254 253 252 253 251 251 252 252 254 256 259 262 265 268 272 276 279 282 285 287 288 288 288 289 290 290 290 290 290 289 289 289 288 288 288 289 291 293 295 297 298 299 300 300
251 250 250 250 253 253 254 254 254 256 258 261 264 268 271 274 277 280 282 284 286 288 290 291 291 292 292 291 291 290 289 289 289 289 291 292 293 295 296 297 299 300 301 302
252 254 255 256 256 256 256 256 257 259 261 264 267 269 271 274 276 278 281 284 287 289 290 291 292 292 293 293 292 292 291 291 291 292 293 293 295 297 299 300 302 303 303 304
252 255 257 259 262 262 260 261 262 263 264 267 269 271 274 275 278 280 283 285 286 288 289 290 291 292 293 293 293 294 294 294 294 295 296 297 298 300 302 303 303 304 304 304
253 256 261 263 267 268 268 267 266 266 267 268 269 271 273 276 279 281 283 284 285 287 288 290 291 292 293 293 294 294 295 296 297 298 299 301 302 303 304 304 305 305 305 305
264 266 269 270 272 273 274 272 272 270 270 270 272 273 275 276 279 281 282 284 285 287 289 290 291 292 293 294 295 295 297 298 300 302 304 305 305 305 306 306 306 306 306 307
269 271 273 273 273 274 274 273 273 273 274 276 278 278 279 280 281 282 283 284 286 287 288 289 290 292 295 296 297 298 300 303 304 306 306 306 306 306 306 306 306 307 307 308
274 275 274 274 275 275 275 275 276 277 278 279 280 281 282 283 284 285 285 285 286 288 290 292 293 295 297 300 303 304 306 307 307 307 307 306 306 306 307 308 308 307 307 307
274 276 278 280 281 281 281 280 280 280 280 281 283 284 285 285 285 285 286 287 288 291 293 296 299 302 306 309 309 310 310 310 309 309 309 309 309 310 310 310 310 308 307 305
279 282 284 284 284 284 283 283 283 282 282 284 287 287 286 286 285 287 290 292 294 299 304 308 311 313 314 314 314 314 314 314 313 313 314 314 314 314 314 314 313 312 309 307
291 293 294 292 291 291 288 285 283 279 280 284 287 287 290 294 295 296 298 303 307 315 320 321 321 321 321 320 320 319 319 319 319 319 319 320 319 319 319 319 318 317 316 313
297 300 301 301 300 299 295 288 280 276 276 268 278 289 298 302 309 320 323 329 335 335 333 331 330 330 330 329 328 327 326 326 325 324 325 325 325 325 325 326 327 328 331 333
298 300 304 308 312 311 305 297 293 274 226 228 243 319 357 7 7 5 4 357 351 346 344 343 342 342 341 341 340 338 337 337 336 335 335 336 337 340 343 348 357 9 21 38
294 301 310 319 342 18 72 88 98 101 98 87 89 84 66 55 42 28 16 7 1 358 356 356 355 355 355 353 352 350 350 350 349 349 351 353 356 1 10 22 34 46 58 72
273 285 344 86 106 95 93 97 101 99 95 93 93 90 80 64 47 33 23 16 12 9 8 7 7 7 6 5 6 6 6 4 4 7 10 14 20 29 39 48 57 68 77 83
188 154 120 117 116 105 101 100 98 95 95 98 96 86 72 59 46 35 28 24 21 20 19 18 18 19 19 19 20 20 20 21 22 26 30 34 40 47 54 62 70 77 83 89
183 166 146 133 125 111 106 101 99 101 102 100 93 81 69 57 45 38 33 31 30 30 29 29 29 30 31 32 32 32 32 33 34 36 39 42 48 54 61 68 76 82 87 93
185 177 162 146 130 123 116 108 106 106 106 100 92 82 69 57 48 42 39 39 38 38 38 38 39 40 40 40 40 39 39 40 41 43 46 50 54 59 65 71 78 85 89 92
185 179 167 153 138 129 122 115 112 113 110 103 95 83 70 60 52 47 46 45 45 45 45 45 46 46 46 46 45 45 46 47 48 50 53 55 58 61 66 73 79 83 88 91
185 180 173 164 152 139 130 123 120 120 116 110 101 88 75 65 57 53 52 51 51 50 50 50 51 50 50 50 50 50 51 51 52 54 55 56 57 60 65 72 77 82 86 88
189 186 181 176 167 153 139 132 130 129 126 119 110 97 83 72 64 60 58 57 56 55 54 53 53 53 53 53 52 52 52 53 54 55 56 56 56 58 62 67 73 79 83 87
189 189 186 181 173 164 154 145 142 142 139 130 122 108 92 81 72 66 63 61 60 58 56 55 55 56 55 55 55 55 54 54 55 55 55 55 55 55 58 62 67 72 78 84
188 189 189 189 183 175 168 159 155 155 152 144 136 124 107 93 82 74 68 65 62 59 57 57 58 58 58 58 57 57 56 56 56 56 56 56 55 55 57 60 63 67 72 77
186 188 190 191 191 186 180 173 166 164 163 158 149 139 124 107 94 84 76 70 66 62 59 59 59 60 59 59 59 59 59 59 59 58 58 58 57 57 58 60 63 66 70 73
Height
5753 5757 5760 5761 5760 5759 5760 5762 5764 5766 5767 5768 5768 5768 5768 5767 5766 5764 5762 5760 5759 5758 5756 5753 5751 5748 5745 5742 5739 5735 5731 5727 5723 5719 5714 5709 5704 5698 5693 5687 5682 5677 5671 5665
5746 5749 5752 5754 5752 5751 5752 5754 5756 5758 5760 5760 5760 5760 5759 5757 5755 5753 5751 5749 5748 5747 5745 5743 5740 5737 5734 5730 5726 5722 5718 5714 5709 5705 5700 5695 5689 5684 5678 5673 5668 5663 5657 5651
5736 5739 5741 5741 5741 5742 5744 5746 5749 5750 5751 5751 5751 5750 5749 5746 5744 5742 5740 5739 5737 5736 5734 5732 5728 5725 5721 5717 5713 5709 5705 5700 5696 5691 5686 5681 5676 5670 5665 5660 5654 5649 5644 5638
5727 5730 5732 5730 5729 5732 5735 5737 5739 5740 5741 5741 5741 5740 5738 5736 5734 5732 5730 5727 5725 5723 5721 5718 5715 5712 5708 5704 5700 5695 5691 5687 5682 5677 5672 5668 5663 5658 5653 5647 5642 5637 5631 5626
5717 5719 5720 5720 5720 5723 5726 5727 5729 5730 5730 5730 5729 5729 5727 5725 5724 5721 5719 5716 5714 5711 5709 5706 5702 5699 5695 5691 5686 5682 5678 5674 5669 5664 5660 5655 5650 5646 5641 5635 5630 5624 5619 5613
5707 5709 5711 5713 5714 5714 5717 5716 5719 5719 5719 5718 5718 5718 5717 5715 5713 5710 5708 5705 5703 5700 5698 5694 5691 5687 5683 5678 5674 5670 5666 5662 5657 5653 5648 5644 5639 5634 5628 5623 5617 5612 5607 5601
5699 5701 5703 5705 5705 5706 5709 5709 5710 5709 5708 5707 5707 5707 5706 5703 5701 5700 5698 5696 5693 5690 5687 5684 5680 5676 5672 5667 5663 5659 5655 5651 5646 5642 5637 5632 5627 5622 5616 5611 5606 5601 5595 5590
5693 5695 5698 5698 5698 5699 5699 5699 5699 5699 5698 5697 5697 5696 5695 5693 5691 5690 5688 5685 5683 5680 5677 5674 5670 5666 5662 5658 5654 5649 5645 5641 5636 5631 5626 5621 5616 5611 5606 5601 5595 5590 5584 5579
5688 5690 5690 5690 5691 5691 5691 5691 5690 5689 5688 5687 5687 5686 5685 5684 5682 5680 5678 5675 5673 5670 5667 5664 5660 5657 5653 5649 5645 5640 5635 5630 5625 5621 5616 5611 5606 5601 5596 5590 5585 5580 5575 5571
5681 5682 5682 5683 5683 5683 5683 5683 5682 5680 5679 5678 5677 5676 5675 5674 5672 5670 5667 5665 5663 5661 5658 5655 5651 5648 5644 5640 5636 5631 5626 5621 5616 5611 5606 5601 5596 5591 5586 5581 5577 5572 5568 5564
5676 5676 5676 5676 5676 5675 5675 5674 5673 5672 5671 5669 5668 5667 5665 5664 5662 5660 5658 5657 5654 5652 5649 5647 5644 5640 5636 5632 5628 5623 5618 5613 5608 5603 5597 5592 5587 5583 5578 5574 5570 5566 5562 5559
5671 5670 5670 5669 5668 5667 5666 5665 5664 5663 5662 5661 5659 5658 5656 5655 5654 5652 5651 5650 5648 5646 5643 5640 5637 5633 5629 5625 5620 5615 5610 5605 5600 5594 5589 5584 5580 5575 5571 5567 5563 5560 5556 5553
5666 5665 5664 5662 5661 5660 5659 5658 5656 5655 5654 5654 5653 5651 5650 5649 5648 5647 5646 5645 5643 5641 5638 5635 5631 5628 5623 5618 5613 5608 5602 5597 5592 5587 5582 5578 5574 5569 5565 5561 5558 5554 5551 5548
5660 5659 5658 5657 5655 5654 5652 5651 5650 5650 5649 5649 5649 5648 5647 5647 5646 5645 5644 5642 5640 5638 5635 5631 5627 5623 5617 5612 5606 5601 5595 5590 5586 5581 5577 5573 5568 5564 5561 5557 5554 5550 5548 5545
5657 5656 5654 5653 5651 5650 5648 5647 5647 5647 5647 5647 5647 5647 5646 5646 5645 5644 5642 5641 5638 5635 5632 5628 5623 5618 5612 5606 5601 5596 5591 5586 5581 5577 5573 5569 5565 5561 5557 5553 5550 5548 5545 5544
5654 5652 5651 5650 5649 5648 5647 5646 5646 5646 5646 5646 5646 5646 5646 5645 5645 5644 5642 5640 5638 5634 5630 5625 5619 5614 5608 5602 5597 5592 5587 5582 5578 5574 5569 5565 5561 5558 5554 5551 5549 5547 5545 5543
5652 5651 5650 5649 5649 5648 5647 5647 5647 5647 5647 5647 5647 5647 5647 5646 5646 5645 5643 5640 5637 5633 5628 5622 5617 5611 5605 5600 5594 5589 5584 5580 5575 5571 5567 5563 5559 5556 5553 5551 5549 5547 5546 5545
5651 5650 5650 5650 5649 5649 5649 5649 5649 5649 5648 5648 5648 5648 5648 5648 5647 5646 5643 5640 5636 5631 5626 5621 5616 5610 5604 5598 5593 5588 5583 5579 5574 5570 5567 5563 5559 5557 5554 5552 5550 5549 5548 5548
5650 5651 5651 5651 5651 5651 5651 5651 5651 5651 5650 5651 5651 5651 5651 5650 5649 5647 5644 5640 5636 5632 5627 5622 5616 5610 5605 5599 5593 5588 5584 5579 5575 5572 5568 5565 5562 5559 5557 5555 5554 5553 5553 5553
5650 5651 5651 5652 5652 5652 5653 5653 5653 5653 5653 5653 5653 5654 5653 5652 5651 5648 5646 5642 5638 5633 5629 5624 5618 5613 5607 5601 5596 5591 5586 5582 5578 5574 5571 5568 5565 5563 5561 5560 5559 5558 5558 5558
5650 5651 5652 5653 5653 5654 5654 5655 5655 5655 5656 5656 5656 5656 5656 5655 5653 5651 5648 5644 5641 5637 5632 5627 5622 5616 5611 5606 5601 5596 5591 5586 5582 5578 5575 5572 5570 5568 5566 5565 5564 5563 5563 5563
5650 5651 5652 5653 5654 5655 5656 5656 5657 5657 5658 5658 5659 5659 5658 5657 5656 5654 5651 5648 5644 5641 5636 5632 5627 5622 5617 5612 5607 5602 5597 5592 5588 5584 5580 5577 5575 5573 5571 5570 5569 5569 5568 5568
5649 5651 5652 5654 5655 5656 5657 5658 5659 5659 5660 5661 5661 5661 5661 5660 5659 5657 5655 5652 5649 5645 5641 5637 5633 5628 5623 5619 5614 5609 5604 5599 5595 5590 5587 5583 5580 5578 5576 5575 5574 5573 5573 5573
5648 5650 5652 5654 5656 5657 5658 5659 5660 5661 5662 5663 5663 5664 5664 5663 5662 5661 5659 5656 5654 5650 5647 5643 5639 5635 5630 5626 5622 5617 5612 5607 5603 5599 5595 5591 5587 5584 5581 5579 5578 5577 5577 5577
5647 5650 5652 5654 5656 5657 5659 5660 5661 5663 5664 5665 5665 5666 5666 5666 5666 5664 5663 5661 5658 5656 5653 5650 5646 5642 5638 5634 5630 5625 5621 5616 5612 5607 5603 5599 5595 5591 5587 5584 5582 5581 5580 5580
5646 5649 5651 5654 5656 5657 5659 5661 5662 5663 5665 5666 5667 5668 5669 5669 5668 5668 5667 5665 5663 5661 5659 5657 5653 5650 5646 5642 5638 5634 5630 5625 5621 5616 5612 5608 5603 5599 5594 5591 5588 5586 5585 5584
5645 5648 5650 5653 5655 5657 5659 5660 5662 5664 5665 5667 5668 5670 5671 5671 5671 5671 5670 5669 5668 5667 5665 5663 5660 5657 5654 5650 5647 5643 5639 5634 5630 5626 5622 5617 5613 5608 5604 5600 5596 5594 5592 5590